FW0790 Weather Reports


time (UTC)temp
F
wind
direction
speed
knots
gust
knots
rain 1hr
in
rain 24hr
in
rain mn
in
humidity
%
barometer
mb
20260507033023 45 310 0.0 0.0 0.00 0.00 0.00 84 1007.5
20260507031521 45 290 0.0 0.0 0.00 0.00 0.00 84 1007.5
20260507030027 45 271 0.0 0.0 0.00 0.00 0.00 84 1007.3
20260507024525 45 323 0.0 0.0 0.00 0.00 0.00 84 1007.3
20260507023018 46 284 0.0 0.0 0.00 0.00 0.00 85 1007.3
20260507021517 46 292 0.0 0.0 0.00 0.00 0.00 85 1007.2
20260507020015 46 311 0.0 0.0 0.00 0.00 0.00 85 1007.1
20260507014515 46 280 0.0 0.0 0.00 0.00 0.00 85 1007.0
20260507013015 46 292 0.0 0.0 0.00 0.00 0.00 85 1006.8
20260507011512 46 293 0.0 0.0 0.00 0.00 0.00 85 1006.7
20260507010012 46 288 0.0 0.0 0.00 0.00 0.00 85 1006.7
20260507004509 46 288 0.0 0.0 0.00 0.00 0.00 85 1006.7
20260507003008 46 308 0.0 0.0 0.00 0.00 0.00 86 1006.7
20260507001511 46 298 0.0 0.0 0.00 0.00 0.00 86 1006.7
20260507000007 47 300 0.0 0.0 0.00 0.00 0.00 86 1006.6
20260506234505 47 273 0.0 0.0 0.00 0.00 0.00 86 1006.6
20260506233010 47 292 0.0 0.0 0.00 0.00 0.00 86 1006.4
20260506231502 47 298 0.0 0.0 0.00 0.00 0.00 86 1006.3
20260506230005 47 304 0.0 0.0 0.00 0.00 0.00 86 1006.1
20260506224602 47 314 0.0 0.0 0.00 0.00 0.00 86 1006.1
20260506223100 47 321 0.0 0.0 0.00 0.00 0.00 86 1006.1
20260506221624 47 15 0.0 0.0 0.00 0.00 0.00 86 1006.0
20260506220127 47 15 0.0 0.0 0.00 0.00 0.00 87 1006.0
20260506214555 47 13 0.0 0.0 0.00 0.00 0.00 87 1005.9
20260506213108 47 13 0.0 0.0 0.00 0.00 0.00 87 1005.7
20260506211555 47 336 0.0 0.0 0.00 0.00 0.00 87 1005.6
20260506210057 48 360 0.0 0.0 0.00 0.00 0.00 87 1005.6
20260506204554 48 10 0.0 0.0 0.00 0.00 0.00 87 1005.5
20260506203049 48 329 0.0 0.0 0.00 0.00 0.00 87 1005.5
20260506201549 48 14 0.0 0.0 0.00 0.00 0.00 87 1005.4
20260506200044 49 13 0.0 0.0 0.00 0.00 0.00 87 1005.2
20260506194543 49 333 0.0 0.0 0.00 0.00 0.00 87 1005.0
20260506193039 49 355 0.0 0.0 0.00 0.00 0.00 87 1004.7
20260506191538 49 351 0.0 0.0 0.00 0.00 0.00 87 1004.4
20260506190035 50 327 0.0 0.0 0.00 0.00 0.00 87 1004.3
20260506184535 51 334 0.0 0.0 0.00 0.00 0.00 87 1004.3
20260506183032 51 333 0.0 0.0 0.00 0.00 0.00 87 1004.1
20260506181527 52 323 0.0 0.0 0.00 0.00 0.00 87 1003.9
20260506180031 53 305 0.0 0.0 0.00 0.00 0.00 86 1003.6
20260506174530 55 308 0.0 0.0 0.00 0.00 0.00 86 1003.1
20260506173026 55 272 0.0 0.0 0.00 0.00 0.00 86 1002.9
20260506171537 55 246 0.0 0.0 0.00 0.00 0.00 86 1002.8
20260506170024 55 222 0.0 0.0 0.00 0.00 0.00 86 1002.7
20260506164524 55 218 0.0 0.0 0.00 0.00 0.00 86 1002.7
20260506163023 55 216 0.0 0.0 0.00 0.00 0.00 86 1002.8
20260506161524 56 236 0.0 0.0 0.00 0.00 0.00 85 1002.8
20260506160025 57 227 0.0 0.0 0.00 0.00 0.00 84 1002.7
20260506154521 57 266 0.0 0.0 0.00 0.00 0.00 81 1002.7
20260506153020 58 232 0.0 0.0 0.00 0.00 0.00 78 1002.4
20260506151524 59 235 0.0 0.0 0.00 0.00 0.00 77 1002.4
20260506150020 59 259 0.0 0.0 0.00 0.00 0.00 76 1002.4
20260506144519 59 251 0.0 0.0 0.00 0.00 0.00 76 1002.4
20260506143020 60 234 0.0 0.0 0.00 0.00 0.00 76 1002.3
20260506141518 59 236 0.0 0.0 0.00 0.00 0.00 75 1002.3
20260506140025 59 227 0.0 0.0 0.00 0.00 0.00 74 1002.2
20260506134517 60 182 0.0 0.0 0.00 0.00 0.00 71 1002.3
20260506133016 60 217 0.0 0.0 0.00 0.00 0.00 72 1002.4
20260506131510 60 221 0.0 0.0 0.00 0.00 0.00 73 1002.4
20260506130010 59 191 0.0 0.0 0.00 0.00 0.00 73 1002.4
20260506124508 59 175 0.0 0.0 0.00 0.00 0.00 73 1002.3
20260506123008 60 222 0.0 0.0 0.00 0.00 0.00 74 1002.4
20260506121507 59 171 0.0 0.0 0.00 0.00 0.00 73 1002.4
20260506120007 58 202 0.0 0.0 0.00 0.00 0.00 74 1002.5
20260506114522 59 190 0.0 0.0 0.00 0.00 0.00 75 1002.3
20260506113006 59 236 0.0 0.0 0.00 0.00 0.00 73 1002.4
20260506111505 59 263 0.0 0.0 0.00 0.00 0.00 74 1002.4
20260506110005 60 194 0.0 0.0 0.00 0.00 0.00 71 1002.3
20260506104502 60 207 0.0 0.0 0.00 0.00 0.00 75 1002.3
20260506103002 59 192 0.0 0.0 0.00 0.00 0.00 77 1002.4
20260506101500 60 194 0.0 0.0 0.00 0.00 0.00 75 1002.4
20260506100114 58 170 0.0 0.0 0.00 0.00 0.00 78 1002.5
20260506094557 58 222 0.0 0.0 0.00 0.00 0.00 78 1002.4
20260506093058 59 193 0.0 0.0 0.00 0.00 0.00 80 1002.2
20260506091557 58 225 0.0 0.0 0.00 0.00 0.00 81 1002.1
20260506090053 58 205 0.0 0.0 0.00 0.00 0.00 83 1002.1
20260506084548 57 171 0.0 0.0 0.00 0.00 0.00 85 1002.1
20260506083046 56 196 0.0 0.0 0.00 0.00 0.00 87 1002.0
20260506081545 55 204 0.0 0.0 0.00 0.00 0.00 87 1002.0
20260506073040 54 245 0.0 0.0 0.00 0.00 0.00 87 1001.9
20260506071536 54 196 0.0 0.0 0.00 0.00 0.00 86 1002.0
20260506061532 53 196 0.0 0.0 0.00 0.00 0.00 86 1001.8
20260506044530 52 209 0.0 0.0 0.00 0.00 0.00 82 1001.8
20260506043022 52 205 0.0 0.0 0.00 0.00 0.00 82 1001.9
20260506041519 53 193 0.0 0.0 0.00 0.00 0.00 82 1001.8
20260506040019 53 193 0.0 0.0 0.00 0.00 0.00 82 1001.7
20260506034519 52 232 0.0 0.0 0.00 0.00 0.00 82 1001.7